Regional Weather Roundup
Issued by NWS Boston, MA

Home | Current Version | Previous Version | Text Only | Print | Product List | Glossary On
Versions: 1 2 3 4 5 6 7 8 9 10 11 12 13 14 15 16 17 18 19 20 21 22 23 24 25 26 27 28 29 30 31 32 33 34 35 36 37 38 39 40 41 42 43 44 45 46 47 48 49
000
ASUS41 KBOX 252304
RWRBOX

REGIONAL WEATHER ROUNDUP
NATIONAL WEATHER SERVICE BOSTON/NORTON MA
600 PM EST THU FEB 25 2021

NOTE:  "FAIR" INDICATES FEW OR NO CLOUDS BELOW 12,000 FEET WITH NO
SIGNIFICANT WEATHER AND/OR OBSTRUCTIONS TO VISIBILITY.

MAZALL-260000-
EASTERN MASSACHUSETTS

CITY           SKY/WX    TMP DP  RH WIND       PRES   REMARKS
BOSTON         PTCLDY    40  16  37 W16G24    30.06R WCI  31
BEVERLY        CLEAR     40  16  37 W12G20    30.04R
LAWRENCE       CLEAR     40  17  39 W12G21    30.06R
BEDFORD        CLEAR     39  17  41 W14G22    30.06R WCI  31
BLUE HILL        N/A     36  18  48 W12G21    30.04R WCI  28
NORWOOD        CLEAR     41  17  38 W17G29    30.07R
MARSHFIELD     CLEAR     43  16  33 VRB6G16   30.06R
PLYMOUTH       CLEAR     40  16  37 W10       30.06R
TAUNTON        CLEAR     42  15  33 W13G24    30.08R
NEW BEDFORD    CLEAR     42  15  33 W8        30.08R
$$

MAZALL-260000-
CAPE COD AND THE ISLANDS

CITY           SKY/WX    TMP DP  RH WIND       PRES   REMARKS
FALMOUTH       CLEAR     41  14  33 W20       30.06R WCI  32
HYANNIS        CLEAR     43  14  31 W10       30.05R
CHATHAM        CLEAR     42  16  34 W8        30.06R
PROVINCETOWN   CLEAR     40  26  57 W12       30.05R
NANTUCKET      CLEAR     38  24  57 W9        30.07R WCI  31
MARTHAS VNYRD  CLEAR     40  20  44 W8        30.08R
$$

MAZALL-260000-
CENTRAL AND WESTERN MASSACHUSETTS

CITY           SKY/WX    TMP DP  RH WIND       PRES   REMARKS
WORCESTER      CLEAR     36  13  38 W15G28    30.06R WCI  27
FITCHBURG      CLEAR     37  18  46 W10G23    30.07R WCI  30
ORANGE         CLEAR     36  16  44 W12G20    30.10R WCI  28
SPRINGFIELD    PTCLDY    37  13  37 NW15G21   30.12R WCI  28
WESTFIELD      CLEAR     37  16  42 NW10      30.12R WCI  30
NORTH ADAMS    CLEAR     34  13  41 W15G23    30.13R WCI  24
PITTSFIELD     CLEAR     31  14  49 NW14      30.10R WCI  21
$$

RIZALL-260000-
RHODE ISLAND

CITY           SKY/WX    TMP DP  RH WIND       PRES   REMARKS
PROVIDENCE     PTCLDY    42  15  33 W13G22    30.09R
NEWPORT        CLEAR     42  18  37 W8G21     30.08R
BLOCK ISLAND   CLEAR     39  27  62 W10       30.12R
SMITHFIELD     CLEAR     38  16  40 W15G24    30.08R WCI  29
WESTERLY       CLEAR     42  13  30 VRB6      30.11R
$$

CTZALL-260000-
CONNECTICUT

CITY           SKY/WX    TMP DP  RH WIND       PRES   REMARKS
BRADLEY INTL   PTCLDY    39  16  39 NW13G20   30.12R WCI  31
HARTFORD       CLEAR     43  14  31 NW9       30.13R
BRIDGEPORT     CLEAR     44  16  32 W13G20    30.15R
DANBURY        CLEAR     43  14  31 NW15G23   30.15R
GROTON         CLEAR     43  15  32 NW10      30.12R
NEW HAVEN      CLEAR     45  18  34 NW8       30.14R
CHESTER        FAIR      41  10  28 NW8       30.12R
MERIDEN        CLEAR     43  12  28 NW13      30.14R
WILLIMANTIC    CLEAR     41  15  35 NW10G17   30.12R
OXFORD         CLEAR     40  15  36 NW6       30.13R
$$

MEZ002-015-021-024-NHZ003-005-008-011-012-014-VTZ005-008-260000-
NORTHERN NEW ENGLAND

CITY           SKY/WX    TMP DP  RH WIND       PRES   REMARKS
PORTLAND ME    CLEAR     34  10  37 NW21G38   30.03R WCI  22
BANGOR ME      PTCLDY    28   8  43 NW12G20   29.96R WCI  18
CONCORD NH     CLEAR     35  14  42 NW15G23   30.05R WCI  25
MANCHESTER NH  PTCLDY    39  13  34 NW9       30.04R
NASHUA NH      CLEAR     38  17  42 W7        30.06R
PORTSMOUTH NH  CLEAR     38   8  29 W18G30    30.02R WCI  28
JAFFREY NH     PTCLDY    35  15  44 W14G21    30.03R WCI  26
KEENE NH       CLOUDY    37  16  42 W9        30.08R WCI  30
BURLINGTON VT  PTCLDY    27   7  42 N15       30.14R WCI  15
MT. WASHINGTON BLWGSNOW   0   0 100 W72G86      N/A  VSB 1/8 WCI -36
$$

NYZ052-076-260000-
EASTERN NEW YORK

CITY           SKY/WX    TMP DP  RH WIND       PRES   REMARKS
ALBANY         PTCLDY    32  15  49 W17G28    30.16R WCI  21
NEW YORK CITY  PTCLDY    45  17  32 NW16      30.17R
$$

ANZALL-260000-
MARINE OBSERVATIONS

STATION/POSITION TIME  TEMP    WIND        PRES    VSBY  WAVE
                       AIR SEA DIR/SP/G                  HT/PER
                 (UTC) (F)     (DEG/KT/KT) (MB)    (MI)  (FT/S)
BOSTON BUOY      2240   41 39  270/ 19/ 23 1017.7R
BUZZARDS BAY     2200          280/ 13/ 14 1019.2R
NANTUCKET SOUND  2240      37  280/ 17/ 19   N/A
MASS BAY-STELLWA 2204   42     280/ 19/ 25 1015.3R  1 7/8  3/ 4
ISLE OF SHOALS   2200   41     290/ 20/ 22 1015.0R
S OF BLOCK IS    2226      40                N/A           4/ 8
$$

......................KEY.........................
  SKY/WX - SKY CONDITION/PRESENT WEATHER
  TMP    - TEMPERATURE IN FAHRENHEIT
  DWPT   - DEWPOINT IN FAHRENHEIT
  RH     - RELATIVE HUMIDITY IN PERCENT
  WIND   - DIRECTION AND SPEED IN MPH
  PRES   - MEAN SEA LEVEL PRESSURE IN INCHES OF HG
  WCI    - WIND CHILL INDEX
  VSB    - VISIBILITY IN MILES
  HX     - HEAT INDEX
  TC     - TEMPERATURE IN CELSIUS
  VRB    - VARIABLE WIND DIRECTION
  N/A    - NOT AVAILABLE




USA.gov is the U.S. government's official web portal to all federal, state and local government web resources and services.